This is the latest recevied weather packets stored in our database for station/object DB0LHR-6. If no packets are shown the sender has not sent any weather packets the latest 10 day(s).
| Time | Temp. | Humidity | Pressure | Rain* | Wind** | Luminosity | Snow |
|---|---|---|---|---|---|---|---|
| 1778226616 | 11.11° C | 84% | 1016 hPa | 0 mm | - | - | - |
| 1778225716 | 10.56° C | 89% | 1016 hPa | 0 mm | - | - | - |
| 1778224816 | 10° C | 89% | 1016 hPa | 0 mm | - | - | - |
| 1778223916 | 9.44° C | 89% | 1016 hPa | 0 mm | - | - | - |
| 1778223016 | 9.44° C | 89% | 1016 hPa | 0 mm | - | - | - |
| 1778222116 | 9.44° C | 90% | 1016 hPa | 0 mm | - | - | - |
| 1778221216 | 9.44° C | 91% | 1016 hPa | 0 mm | - | - | - |
| 1778220316 | 8.89° C | 91% | 1016 hPa | 0 mm | - | - | - |
| 1778219416 | 8.89° C | 93% | 1016 hPa | 0 mm | - | - | - |
| 1778218516 | 8.89° C | 93% | 1016 hPa | 0 mm | - | - | - |
| 1778217616 | 8.33° C | 94% | 1016 hPa | 0 mm | - | - | - |
| 1778216716 | 7.78° C | 94% | 1016 hPa | 0 mm | - | - | - |
| 1778215816 | 7.78° C | 93% | 1016 hPa | 0 mm | - | - | - |
| 1778214676 | 7.22° C | 93% | 1016 hPa | 0 mm | - | - | - |
| 1778213776 | 7.22° C | 92% | 1016 hPa | 0 mm | - | - | - |
| 1778212876 | 7.22° C | 91% | 1015 hPa | 0 mm | - | - | - |
| 1778211976 | 7.78° C | 88% | 1015 hPa | 0 mm | - | - | - |
| 1778211076 | 7.78° C | 87% | 1015 hPa | 0 mm | - | - | - |
| 1778210176 | 8.33° C | 86% | 1015 hPa | 0 mm | - | - | - |
| 1778209276 | 8.33° C | 86% | 1015 hPa | 0 mm | - | - | - |
| 1778208376 | 8.33° C | 85% | 1015 hPa | 0 mm | - | - | - |
| 1778207477 | 8.89° C | 85% | 1015 hPa | 0 mm | - | - | - |
| 1778206576 | 8.89° C | 85% | 1015 hPa | 0 mm | - | - | - |
| 1778205676 | 8.89° C | 85% | 1015 hPa | 0 mm | - | - | - |
| 1778204776 | 8.89° C | 85% | 1015 hPa | 0 mm | - | - | - |
* Rain latest 24 hours (hover to see other rain measurements)
** Current wind speed in m/s (hover to see current wind gust speed)